This demonstration page uses our WeatherBlox Daily Observations layout. Learn more.

Left ArrowRight Arrow

Hourly Observations for July 7, 2022

Temp ( °F °C ) Dew Point ( °F °C ) Humidity (%) Winds ( mph kmh ) Pressure ( in mb ) Visibility ( mi km ) Precip ( " mm )
12:15 am 00:15 Partly Cloudy 77 25 73 23 89 89 Calm 29.91 1013 10 16 0.00 0.00
12:35 am 00:35 Mostly Cloudy 77 25 73 23 89 89 NE 5 7 29.91 1013 10 16 0.00 0.00
12:55 am 00:55 Cloudy 75 24 73 23 94 94 NE 3 6 29.92 1013 10 16 0.00 0.00
1:15 am 01:15 Mostly Cloudy 75 24 73 23 94 94 NE 6 9 29.92 1013 10 16 0.00 0.00
1:35 am 01:35 Partly Cloudy 75 24 73 23 94 94 NE 7 11 29.91 1013 10 16 0.00 0.00
1:55 am 01:55 Mostly Cloudy 75 24 73 23 94 94 NNE 7 11 29.91 1013 10 16 0.00 0.00
2:15 am 02:15 Cloudy 75 24 73 23 94 94 NNE 6 9 29.91 1013 10 16 0.00 0.00
2:35 am 02:35 Cloudy 73 23 73 23 100 100 NNE 8 13 29.91 1013 10 16 0.00 0.00
2:55 am 02:55 Cloudy 75 24 73 23 94 94 NNE 8 13 29.92 1013 10 16 0.00 0.00
3:15 am 03:15 Cloudy 73 23 73 23 100 100 NNE 7 11 29.92 1013 10 16 0.00 0.00
3:35 am 03:35 Cloudy 73 23 72 22 94 94 NNE 9 15 29.93 1013 10 16 0.00 0.00
3:55 am 03:55 Cloudy 73 23 72 22 94 94 NNE 7 11 29.93 1013 10 16 0.00 0.00
4:15 am 04:15 Cloudy 73 23 72 22 94 94 NNE 9 15 29.92 1013 10 16 0.00 0.00
4:35 am 04:35 Cloudy 72 22 70 21 94 94 NNE 12 19 29.92 1013 10 16 0.00 0.00
4:55 am 04:55 Cloudy 72 22 70 21 94 94 NNE 10 17 29.93 1013 10 16 0.00 0.00
5:15 am 05:15 Cloudy 72 22 70 21 94 94 NNE 9 15 29.93 1013 10 16 0.00 0.00
5:35 am 05:35 Cloudy 70 21 70 21 100 100 NNE 9 15 29.94 1014 10 16 0.00 0.00
5:55 am 05:55 Cloudy 70 21 70 21 100 100 NNE 3 6 29.94 1014 10 16 0.00 0.00
6:15 am 06:15 Cloudy 70 21 68 20 94 94 NNE 8 13 29.95 1014 10 16 0.00 0.00
6:35 am 06:35 Cloudy 70 21 68 20 94 94 NE 9 15 29.95 1014 10 16 0.00 0.00
6:55 am 06:55 Cloudy 70 21 68 20 94 94 NNE 8 13 29.96 1015 10 16 0.00 0.00
7:15 am 07:15 Cloudy 70 21 68 20 94 94 NNE 6 9 29.97 1015 10 16 0.00 0.00
7:35 am 07:35 Cloudy 70 21 68 20 94 94 N 5 7 29.97 1015 10 16 0.00 0.00
7:55 am 07:55 Cloudy 70 21 68 20 94 94 NNE 9 15 29.97 1015 10 16 0.00 0.00
8:15 am 08:15 Cloudy 72 22 70 21 94 94 NNE 10 17 29.99 1016 10 16 0.00 0.00
8:35 am 08:35 Cloudy 72 22 70 21 94 94 NE 8 13 29.98 1015 10 16 0.00 0.00
8:55 am 08:55 Cloudy 72 22 70 21 94 94 NNE 8 13 29.99 1016 10 16 0.00 0.00
9:15 am 09:15 Cloudy 73 23 70 21 89 89 NNE 8 13 29.99 1015 10 16 0.00 0.00
9:35 am 09:35 Cloudy 73 23 70 21 89 89 NNE 5 7 29.99 1015 10 16 0.00 0.00
9:55 am 09:55 Cloudy 73 23 70 21 89 89 NNE 7 11 29.99 1015 10 16 0.00 0.00
10:15 am 10:15 Cloudy 73 23 70 21 89 89 NNE 5 7 29.99 1015 10 16 0.00 0.00
10:35 am 10:35 Cloudy 73 23 70 21 89 89 NE 5 7 30.00 1016 10 16 0.00 0.00
10:55 am 10:55 Cloudy 73 23 70 21 89 89 N 3 6 30.00 1016 10 16 0.00 0.00
11:15 am 11:15 Cloudy 73 23 70 21 89 89 NE 5 7 30.00 1016 10 16 0.00 0.00
11:35 am 11:35 Cloudy 73 23 70 21 89 89 NNE 5 7 30.00 1016 10 16 0.00 0.00
11:55 am 11:55 Cloudy 75 24 70 21 83 83 N 5 7 30.01 1016 10 16 0.00 0.00
12:15 pm 12:15 Cloudy 77 25 70 21 79 79 Calm 29.99 1016 10 16 0.00 0.00
12:35 pm 12:35 Cloudy 77 25 72 22 83 83 NW 6 9 29.99 1016 10 16 0.00 0.00
12:55 pm 12:55 Cloudy 77 25 72 22 83 83 NW 6 9 29.99 1016 10 16 0.00 0.00
1:15 pm 13:15 Cloudy 77 25 72 22 83 83 NNW 5 7 29.99 1016 10 16 0.00 0.00
1:35 pm 13:35 Cloudy 79 26 70 21 74 74 NNE 5 7 29.99 1016 10 16 0.00 0.00
1:55 pm 13:55 Cloudy 79 26 72 22 79 79 NE 3 6 29.98 1015 10 16 0.00 0.00
2:35 pm 14:35 Cloudy 79 26 72 22 79 79 NNE 5 7 29.99 1016 10 16 0.00 0.00
2:55 pm 14:55 Cloudy 79 26 72 22 79 79 NE 5 7 29.99 1016 10 16 0.00 0.00
3:15 pm 15:15 Cloudy 79 26 72 22 79 79 ENE 5 7 29.98 1015 10 16 0.00 0.00
3:35 pm 15:35 Cloudy 81 27 72 22 74 74 NNE 5 7 29.98 1015 10 16 0.00 0.00
3:55 pm 15:55 Cloudy 81 27 72 22 74 74 NE 6 9 29.98 1015 10 16 0.00 0.00
4:15 pm 16:15 Cloudy 81 27 70 21 70 70 ENE 7 11 29.97 1015 10 16 0.00 0.00
4:35 pm 16:35 Cloudy 82 28 72 22 70 70 ENE 6 9 29.96 1015 10 16 0.00 0.00
4:55 pm 16:55 Cloudy 81 27 70 21 70 70 ENE 6 9 29.96 1015 10 16 0.00 0.00
5:15 pm 17:15 Cloudy 81 27 70 21 70 70 NE 5 7 29.96 1015 10 16 0.00 0.00
5:35 pm 17:35 Cloudy 81 27 72 22 74 74 ENE 6 9 29.96 1015 10 16 0.00 0.00
5:55 pm 17:55 Cloudy 81 27 72 22 74 74 E 5 7 29.95 1014 10 16 0.00 0.00
6:15 pm 18:15 Partly Cloudy 81 27 72 22 74 74 ENE 5 7 29.94 1014 10 16 0.00 0.00
6:35 pm 18:35 Mostly Cloudy 82 28 72 22 70 70 E 5 7 29.95 1014 10 16 0.00 0.00
6:55 pm 18:55 Mostly Cloudy 81 27 72 22 74 74 Calm 29.96 1015 10 16 0.00 0.00
7:15 pm 19:15 Mostly Cloudy 81 27 72 22 74 74 ESE 6 9 29.96 1015 10 16 0.00 0.00
7:35 pm 19:35 Mostly Cloudy 81 27 72 22 74 74 E 5 7 29.96 1015 10 16 0.00 0.00
7:55 pm 19:55 Sunny 79 26 72 22 79 79 SE 3 6 29.96 1015 10 16 0.00 0.00
8:15 pm 20:15 Sunny 79 26 72 22 79 79 SE 5 7 29.95 1014 10 16 0.00 0.00
8:35 pm 20:35 Partly Cloudy 79 26 72 22 79 79 E 3 6 29.96 1015 10 16 0.00 0.00
8:55 pm 20:55 Clear 79 26 72 22 79 79 Calm 29.96 1015 10 16 0.00 0.00
9:15 pm 21:15 Clear 77 25 72 22 83 83 ESE 3 6 29.97 1015 10 16 0.00 0.00
9:35 pm 21:35 Clear 77 25 72 22 83 83 SSE 3 6 29.98 1015 10 16 0.00 0.00
9:55 pm 21:55 Clear 77 25 72 22 83 83 S 3 6 29.99 1016 10 16 0.00 0.00
10:15 pm 22:15 Clear 75 24 72 22 89 89 Calm 30.00 1016 10 16 0.00 0.00
10:35 pm 22:35 Clear 77 25 72 22 83 83 Calm 30.00 1016 10 16 0.00 0.00
10:55 pm 22:55 Clear 73 23 72 22 94 94 Calm 30.01 1016 10 16 0.00 0.00
11:15 pm 23:15 Partly Cloudy 73 23 72 22 94 94 Calm 30.01 1016 10 16 0.00 0.00
11:35 pm 23:35 Partly Cloudy 73 23 72 22 94 94 Calm 30.02 1016 10 16 0.00 0.00
11:55 pm 23:55 Partly Cloudy 73 23 72 22 94 94 Calm 30.01 1016 10 16 0.00 0.00

Powered by AerisWeather